Date String (YYYY-MM-DD hh:mm:ss) UTC,Instrument flags,Ambient pressure (hPa),Sample flow (lpm),Bypass flow (lpm),Sample temperature (°C),Ambient temperature (°C),ASC tube jacket temperature (°C),LED temperature (°C),Box temperature (°C),Sample RH (%),Span deviation,Mass concentration (μg/m³),Mass concentration (μg/m³),Mass concentration (μg/m³)
DateTimeUTC,F1_M11,P_M11,Q1_M11,Q2_M11,T1_M11,T2_M11,T3_M11,T4_M11,T5_M11,U1_M11,ZSPAN_M11,X0_M11,X2_M11,X1_M11
2022-02-22 02:00:00,,0819.4,5.00,0.00,22.4,22.2,00.0,31.4,24.1,07.0,0000.0,0010.50,0005.06,0004.33
2022-02-22 02:01:00,,0819.4,5.00,0.00,22.4,22.0,00.0,31.4,24.0,07.0,-000.1,0010.58,0005.03,0004.32
2022-02-22 02:02:00,,0819.4,5.00,0.00,22.3,21.8,00.0,31.4,23.9,07.0,-000.3,0010.62,0005.04,0004.32
2022-02-22 02:03:00,,0819.4,5.00,0.00,22.2,21.6,00.0,31.4,23.8,07.0,-000.2,0011.27,0005.06,0004.33
2022-02-22 02:04:00,,0819.4,5.00,0.00,22.2,21.6,00.0,31.4,23.8,07.0,-000.5,0011.89,0005.08,0004.33
2022-02-22 02:05:00,,0819.5,5.00,0.00,22.3,22.2,00.0,31.4,24.0,07.0,-000.6,0011.90,0005.09,0004.33
2022-02-22 02:06:00,,0819.5,4.99,0.00,22.4,23.0,00.0,31.4,24.3,07.0,-000.7,0011.81,0005.06,0004.31
2022-02-22 02:07:00,,0819.7,5.00,0.00,22.6,23.2,00.0,31.4,24.4,06.9,-000.8,0010.82,0005.05,0004.30
2022-02-22 02:08:00,,0819.7,5.01,0.00,22.5,22.7,00.0,31.4,24.4,06.9,-001.0,0010.64,0005.05,0004.30
2022-02-22 02:09:00,,0819.7,5.00,0.00,22.5,22.4,00.0,31.4,24.3,06.9,-001.0,0010.56,0005.01,0004.30
2022-02-22 02:10:00,,0819.6,5.00,0.00,22.4,22.2,00.0,31.4,24.1,06.9,-001.0,0010.67,0005.02,0004.30
2022-02-22 02:11:00,,0819.6,4.99,0.00,22.4,22.0,00.0,31.4,24.0,06.9,-000.0,0010.45,0004.96,0004.29
2022-02-22 02:12:00,,0819.6,4.99,0.00,22.3,21.8,00.0,31.4,23.9,06.9,0000.3,0009.96,0004.92,0004.27
2022-02-22 02:13:00,,0819.6,4.99,0.00,22.3,21.6,00.0,31.4,23.8,06.8,0000.2,0009.75,0004.88,0004.25
2022-02-22 02:14:00,,0819.7,5.00,0.00,22.2,21.5,00.0,31.4,23.7,06.8,0000.5,0009.07,0004.81,0004.21
2022-02-22 02:15:00,,0819.7,4.99,0.00,22.2,22.0,00.0,31.4,23.9,06.8,0000.6,0008.53,0004.79,0004.19
2022-02-22 02:16:00,,0819.7,4.99,0.00,22.4,22.8,00.0,31.4,24.2,06.8,0000.0,0008.41,0004.71,0004.16
2022-02-22 02:17:00,,0819.7,5.02,0.00,22.5,23.1,00.0,31.4,24.4,06.7,0000.4,0008.48,0004.70,0004.13
2022-02-22 02:18:00,,0819.7,4.99,0.00,22.5,22.8,00.0,31.4,24.4,06.7,0001.4,0008.63,0004.69,0004.10
2022-02-22 02:19:00,,0819.7,5.00,0.00,22.5,22.5,00.0,31.5,24.3,06.7,0000.1,0008.64,0004.67,0004.07
2022-02-22 02:20:00,,0819.7,5.01,0.00,22.5,22.3,00.0,31.4,24.2,06.7,0001.8,0008.50,0004.62,0004.04
2022-02-22 02:21:00,,0819.7,5.01,0.00,22.4,22.0,00.0,31.4,24.1,06.7,0001.3,0008.26,0004.54,0004.00
2022-02-22 02:22:00,,0819.8,5.00,0.00,22.3,21.8,00.0,31.4,24.0,06.7,0001.1,0008.55,0004.54,0003.98
2022-02-22 02:23:00,,0819.8,5.00,0.00,22.3,21.6,00.0,31.4,23.9,06.7,0001.7,0008.63,0004.54,0003.95
2022-02-22 02:24:00,,0819.8,5.00,0.00,22.2,21.5,00.0,31.4,23.8,06.7,0001.8,0009.16,0004.55,0003.94
2022-02-22 02:25:00,,0819.8,5.00,0.00,22.3,22.0,00.0,31.4,24.0,06.7,0002.1,0009.18,0004.56,0003.93
2022-02-22 02:26:00,,0819.9,5.00,0.00,22.4,22.8,00.0,31.4,24.2,06.6,0001.1,0009.10,0004.54,0003.90
2022-02-22 02:27:00,,0819.8,5.01,0.00,22.5,23.2,00.0,31.4,24.4,06.5,0000.0,0009.03,0004.53,0003.87
2022-02-22 02:28:00,,0819.8,4.99,0.00,22.6,22.8,00.0,31.5,24.4,06.5,0000.0,0008.93,0004.51,0003.85
2022-02-22 02:29:00,,0819.8,5.00,0.00,22.5,22.4,00.0,31.4,24.3,06.5,0000.0,0008.73,0004.48,0003.84
2022-02-22 02:30:00,,0819.7,5.00,0.00,22.5,22.0,00.0,31.4,24.2,06.5,0000.0,0008.63,0004.45,0003.82
2022-02-22 02:31:00,,0819.7,5.01,0.00,22.4,21.6,00.0,31.4,24.1,06.6,0000.0,0008.57,0004.43,0003.82
2022-02-22 02:32:00,,0819.7,4.99,0.00,22.3,21.3,00.0,31.4,23.9,06.6,0000.0,0008.57,0004.40,0003.79
2022-02-22 02:33:00,,0819.7,5.00,0.00,22.3,21.2,00.0,31.4,23.8,06.5,0000.0,0008.34,0004.36,0003.76
2022-02-22 02:34:00,,0819.7,5.01,0.00,22.2,21.1,00.0,31.3,23.7,06.5,0000.0,0008.12,0004.30,0003.73
2022-02-22 02:35:00,,0819.8,4.99,0.00,22.2,21.3,00.0,31.3,23.7,06.5,0000.0,0007.86,0004.27,0003.69
2022-02-22 02:36:00,,0819.8,5.00,0.00,22.2,22.1,00.0,31.3,23.9,06.5,0000.0,0007.64,0004.23,0003.66
2022-02-22 02:37:00,,0819.8,5.00,0.00,22.4,22.9,00.0,31.4,24.2,06.5,0000.0,0007.59,0004.18,0003.64
2022-02-22 02:38:00,,0819.8,5.01,0.00,22.5,23.0,00.0,31.4,24.4,06.4,0000.0,0007.56,0004.11,0003.60
2022-02-22 02:39:00,,0819.8,4.98,0.00,22.5,22.7,00.0,31.4,24.4,06.4,0000.0,0007.87,0004.07,0003.57
2022-02-22 02:40:00,,0819.8,5.01,0.00,22.5,22.2,00.0,31.4,24.2,06.4,0000.0,0008.38,0004.04,0003.54
2022-02-22 02:41:00,,0819.8,5.00,0.00,22.4,21.9,00.0,31.4,24.1,06.4,0000.0,0008.42,0004.00,0003.51
2022-02-22 02:42:00,,0819.9,5.02,0.00,22.4,21.6,00.0,31.4,24.0,06.5,0000.0,0008.57,0004.00,0003.48
2022-02-22 02:43:00,,0819.9,5.00,0.00,22.3,21.3,00.0,31.3,23.9,06.5,0000.0,0009.37,0003.99,0003.46
2022-02-22 02:44:00,,0819.9,4.99,0.00,22.2,21.0,00.0,31.3,23.8,06.5,0000.0,0009.79,0004.02,0003.44
2022-02-22 02:45:00,,0819.9,5.00,0.00,22.2,20.9,00.0,31.3,23.8,06.6,0001.4,0009.76,0004.03,0003.44
2022-02-22 02:46:00,,0819.8,4.99,0.00,22.1,20.9,00.0,31.3,23.7,06.6,0002.3,0009.72,0004.03,0003.45
2022-02-22 02:47:00,,0819.9,5.00,0.00,22.2,21.6,00.0,31.3,23.8,06.6,0000.0,0010.37,0004.01,0003.45
2022-02-22 02:48:00,,0819.9,5.01,0.00,22.3,22.5,00.0,31.3,24.1,06.5,0000.0,0010.48,0004.01,0003.43
2022-02-22 02:49:00,,0819.9,5.00,0.00,22.5,23.2,00.0,31.4,24.4,06.4,0000.0,0010.45,0004.02,0003.43
2022-02-22 02:50:00,,0819.9,4.99,0.00,22.6,23.2,00.0,31.4,24.5,06.3,0000.0,0010.58,0004.01,0003.44
2022-02-22 02:51:00,,0819.9,5.00,0.00,22.6,22.8,00.0,31.4,24.4,06.3,0000.0,0009.89,0004.00,0003.43
2022-02-22 02:52:00,,0819.8,5.00,0.00,22.5,22.5,00.0,31.4,24.2,06.2,0000.4,0010.17,0004.03,0003.43
2022-02-22 02:53:00,,0819.8,4.99,0.00,22.4,22.2,00.0,31.4,24.1,06.2,0000.5,0010.44,0004.03,0003.43
2022-02-22 02:54:00,,0819.9,5.01,0.00,22.4,21.9,00.0,31.4,24.0,06.2,0000.0,0009.98,0004.02,0003.43
2022-02-22 02:55:00,,0819.7,5.00,0.00,22.3,21.7,00.0,31.4,23.9,06.2,0000.0,0009.93,0003.99,0003.42
2022-02-22 02:56:00,,0819.8,4.99,0.00,22.2,21.6,00.0,31.3,23.8,06.2,0000.0,0009.96,0003.97,0003.41
2022-02-22 02:57:00,,0819.8,4.99,0.00,22.2,21.4,00.0,31.3,23.7,06.2,0000.0,0009.89,0003.95,0003.40
2022-02-22 02:58:00,,0819.9,5.00,0.00,22.2,21.9,00.0,31.3,23.8,06.2,-000.0,0009.47,0003.95,0003.38
2022-02-22 02:59:00,,0819.9,5.01,0.00,22.3,22.7,00.0,31.4,24.1,06.2,-000.5,0009.13,0003.95,0003.38
